Regional Weather Roundup
Issued by NWS Sioux Falls, SD

Home | Current Version | Previous Version | Text Only | Print | Product List | Glossary On
Versions: 1 2 3 4 5 6 7 8 9 10 11 12 13 14 15 16 17 18 19 20 21 22 23 24 25 26 27 28 29 30 31 32 33 34 35 36 37 38 39 40 41 42 43 44 45 46 47 48 49 50
000
ASUS43 KFSD 022002
RWRFSD

WEATHER ROUNDUP FOR SE SOUTH DAKOTA/SW MINNESOTA/NW IOWA
NATIONAL WEATHER SERVICE SIOUX FALLS SD
300 PM CDT TUE JUN 02 2015

NOTE: "FAIR" INDICATES FEW OR NO CLOUDS BELOW 12,000 FEET WITH NO
SIGNIFICANT WEATHER AND OR OBSTRUCTIONS TO VISIBILITY.


SDZ038>040-050-052>070-022100-
SOUTHEAST SOUTH DAKOTA

CITY           SKY/WX    TMP DP  RH WIND       PRES   REMARKS
BROOKINGS      MOSUNNY   77  63  61 S26G33    29.86F
CHAMBERLAIN    SUNNY     83  65  54 S17G23    29.75F
HURON          SUNNY     83  60  45 S21G31    29.75F
MADISON        FAIR      77  61  57 S24G32    29.85F
MITCHELL       MOSUNNY   83  61  47 S17G24    29.79F
SIOUX FALLS    PTSUNNY   77  62  59 S18G26    29.87F
WINNER         FAIR      92  59  33 S18       29.76F
YANKTON        MOSUNNY   79  61  53 S16G25    29.84F
$$

MNZ071-072-080-081-089-090-097-098-022100-
SOUTHWEST MINNESOTA

CITY           SKY/WX    TMP DP  RH WIND       PRES   REMARKS
FAIRMONT       SUNNY     75  52  43 S22G28    29.97F
JACKSON        MOSUNNY   73  54  49 SE20G25   29.97F
LUVERNE        CLOUDY    77  59  53 S20G25    29.90F
MARSHALL       PTSUNNY   79  57  47 S22G31    29.87F
MONTEVIDEO     PTSUNNY   79  57  47 S18G24    29.85F
PIPESTONE      PTSUNNY   75  59  57 S23       29.89F
REDWOOD FALLS  PTSUNNY   79  53  40 S20G30    29.91F
TRACY          PTSUNNY   78  57  48 S16G22    29.91S
WINDOM         MOSUNNY   73  54  49 S16       29.95S
WORTHINGTON    PTSUNNY   75  55  50 S17G29    29.92F
$$

IAZ001>003-012>014-020>022-031-032-NEZ013-014-SDZ071-022100-
NORTHWEST IOWA

CITY           SKY/WX    TMP DP  RH WIND       PRES   REMARKS
DENISON        PTSUNNY   73  59  60 S13G23    29.95F
ESTHERVILLE    MOSUNNY   72  53  51 S23G30    29.97F
SIOUX CITY     CLOUDY    76  59  55 S18       29.92F
SPENCER        PTSUNNY   74  57  55 S20G31    29.96F
$$

ABBREVIATIONS USED IN REMARKS
   TC - TEMPERATURE IN CELSIUS
  WCI - WIND CHILL INDEX
   HX - HEAT INDEX
  VSB - VISIBILITY



USA.gov is the U.S. government's official web portal to all federal, state and local government web resources and services.